Wetterdaten: Samstag, 15.08.2015
Datum Zeit Temp. A. Feuchte A. Luftdruck Regen Wind Richtung Richtung Sonnenschein ET UV Solar Taupunkt Windchill Windben Empfang
15.08.2015 00:01 21,7 C 62 % 1007,6 hPa 0,0 l/m 0,0 km/h (0 Bft) N 359 0 min 0,000 mm 0,0 UV-I 0 W/m 14,1 C 21,7 C 0,0 km/h (0 Bft) 0,00 %
15.08.2015 00:06 21,7 C 62 % 1007,4 hPa 0,0 l/m 5,4 km/h (1 Bft) NW 322 0 min 0,000 mm 0,0 UV-I 0 W/m 14,1 C 21,7 C 7,9 km/h (2 Bft) 0,00 %
15.08.2015 00:11 21,6 C 62 % 1007,2 hPa 0,0 l/m 0,0 km/h (0 Bft) NO 46 0 min 0,000 mm 0,0 UV-I 0 W/m 14,0 C 21,6 C 0,0 km/h (0 Bft) 0,00 %
15.08.2015 00:16 21,6 C 63 % 1007,3 hPa 0,0 l/m 0,0 km/h (0 Bft) N 353 0 min 0,000 mm 0,0 UV-I 0 W/m 14,2 C 21,6 C 0,0 km/h (0 Bft) 0,00 %
15.08.2015 00:21 21,5 C 63 % 1007,5 hPa 0,0 l/m 0,0 km/h (0 Bft) N 356 0 min 0,000 mm 0,0 UV-I 0 W/m 14,2 C 21,5 C 0,0 km/h (0 Bft) 0,00 %
15.08.2015 00:26 21,4 C 63 % 1007,5 hPa 0,0 l/m 0,0 km/h (0 Bft) N-NW 334 0 min 0,000 mm 0,0 UV-I 0 W/m 14,1 C 21,4 C 0,0 km/h (0 Bft) 0,00 %
15.08.2015 00:31 21,3 C 63 % 1007,6 hPa 0,0 l/m 0,4 km/h (0 Bft) N-NW 347 0 min 0,000 mm 0,0 UV-I 0 W/m 14,0 C 21,3 C 4,0 km/h (1 Bft) 0,00 %
15.08.2015 00:36 21,2 C 63 % 1007,6 hPa 0,0 l/m 4,0 km/h (1 Bft) SW 221 0 min 0,000 mm 0,0 UV-I 0 W/m 13,9 C 21,2 C 7,9 km/h (2 Bft) 0,00 %
15.08.2015 00:41 21,2 C 64 % 1007,8 hPa 0,0 l/m 0,7 km/h (0 Bft) W-SW 256 0 min 0,000 mm 0,0 UV-I 0 W/m 14,1 C 21,2 C 4,0 km/h (1 Bft) 0,00 %
15.08.2015 00:46 21,1 C 65 % 1007,8 hPa 0,0 l/m 0,0 km/h (0 Bft) N 5 0 min 0,000 mm 0,0 UV-I 0 W/m 14,3 C 21,1 C 0,0 km/h (0 Bft) 0,00 %
15.08.2015 00:51 20,9 C 67 % 1008,0 hPa 0,0 l/m 2,2 km/h (1 Bft) NW 323 0 min 0,000 mm 0,0 UV-I 0 W/m 14,5 C 20,9 C 7,9 km/h (2 Bft) 0,00 %
15.08.2015 00:56 20,8 C 68 % 1008,0 hPa 0,0 l/m 0,7 km/h (0 Bft) W 262 0 min 0,000 mm 0,0 UV-I 0 W/m 14,7 C 20,8 C 4,0 km/h (1 Bft) 0,00 %
15.08.2015 01:01 20,6 C 69 % 1008,0 hPa 0,0 l/m 0,0 km/h (0 Bft) NO 43 0 min 0,000 mm 0,0 UV-I 0 W/m 14,7 C 20,6 C 0,0 km/h (0 Bft) 0,00 %
15.08.2015 01:06 20,5 C 69 % 1007,9 hPa 0,0 l/m 2,9 km/h (1 Bft) W-SW 256 0 min 0,000 mm 0,0 UV-I 0 W/m 14,6 C 20,5 C 4,0 km/h (1 Bft) 0,00 %
15.08.2015 01:11 20,4 C 70 % 1008,0 hPa 0,0 l/m 0,0 km/h (0 Bft) N-NO 23 0 min 0,000 mm 0,0 UV-I 0 W/m 14,7 C 20,4 C 0,0 km/h (0 Bft) 0,00 %
15.08.2015 01:16 20,2 C 70 % 1008,0 hPa 0,0 l/m 0,0 km/h (0 Bft) O-NO 72 0 min 0,000 mm 0,0 UV-I 0 W/m 14,5 C 20,2 C 0,0 km/h (0 Bft) 0,00 %
15.08.2015 01:21 20,1 C 70 % 1007,9 hPa 0,0 l/m 0,0 km/h (0 Bft) N-NW 333 0 min 0,000 mm 0,0 UV-I 0 W/m 14,5 C 20,1 C 0,0 km/h (0 Bft) 0,00 %
15.08.2015 01:26 20,0 C 71 % 1008,1 hPa 0,0 l/m 0,0 km/h (0 Bft) N-NO 29 0 min 0,000 mm 0,0 UV-I 0 W/m 14,6 C 20,0 C 0,0 km/h (0 Bft) 0,00 %
15.08.2015 01:31 20,0 C 72 % 1008,2 hPa 0,0 l/m 0,0 km/h (0 Bft) O-NO 75 0 min 0,000 mm 0,0 UV-I 0 W/m 14,8 C 20,0 C 0,0 km/h (0 Bft) 0,00 %
15.08.2015 01:36 19,9 C 73 % 1007,9 hPa 0,0 l/m 0,0 km/h (0 Bft) SO 127 0 min 0,000 mm 0,0 UV-I 0 W/m 14,9 C 19,9 C 0,0 km/h (0 Bft) 0,00 %
15.08.2015 01:41 19,8 C 75 % 1008,0 hPa 0,0 l/m 0,4 km/h (0 Bft) N 352 0 min 0,000 mm 0,0 UV-I 0 W/m 15,2 C 19,8 C 4,0 km/h (1 Bft) 0,00 %
15.08.2015 01:46 19,8 C 77 % 1007,8 hPa 0,0 l/m 0,7 km/h (0 Bft) NO 42 0 min 0,000 mm 0,0 UV-I 0 W/m 15,6 C 19,8 C 4,0 km/h (1 Bft) 0,00 %
15.08.2015 01:51 19,8 C 78 % 1008,0 hPa 0,0 l/m 4,3 km/h (1 Bft) NW 307 0 min 0,000 mm 0,0 UV-I 0 W/m 15,8 C 19,8 C 7,9 km/h (2 Bft) 0,00 %
15.08.2015 01:56 19,8 C 78 % 1008,2 hPa 0,0 l/m 4,3 km/h (1 Bft) W 278 0 min 0,000 mm 0,0 UV-I 0 W/m 15,8 C 19,8 C 7,9 km/h (2 Bft) 0,00 %
15.08.2015 02:01 19,8 C 79 % 1008,3 hPa 0,0 l/m 5,8 km/h (2 Bft) NW 311 0 min 0,000 mm 0,0 UV-I 0 W/m 16,0 C 19,8 C 7,9 km/h (2 Bft) 0,00 %
15.08.2015 02:06 19,8 C 79 % 1008,3 hPa 0,0 l/m 1,8 km/h (1 Bft) SW 226 0 min 0,000 mm 0,0 UV-I 0 W/m 16,0 C 19,8 C 4,0 km/h (1 Bft) 0,00 %
15.08.2015 02:11 19,8 C 79 % 1008,3 hPa 0,0 l/m 2,9 km/h (1 Bft) W-NW 290 0 min 0,000 mm 0,0 UV-I 0 W/m 16,0 C 19,8 C 4,0 km/h (1 Bft) 0,00 %
15.08.2015 02:16 19,8 C 80 % 1008,3 hPa 0,0 l/m 0,0 km/h (0 Bft) N-NO 21 0 min 0,000 mm 0,0 UV-I 0 W/m 16,2 C 19,8 C 0,0 km/h (0 Bft) 0,00 %
15.08.2015 02:21 19,7 C 80 % 1008,6 hPa 0,0 l/m 6,8 km/h (2 Bft) W-SW 256 0 min 0,000 mm 0,0 UV-I 0 W/m 16,1 C 19,5 C 7,9 km/h (2 Bft) 0,00 %
15.08.2015 02:26 19,7 C 80 % 1008,4 hPa 0,0 l/m 5,8 km/h (2 Bft) N-NW 340 0 min 0,000 mm 0,0 UV-I 0 W/m 16,1 C 19,7 C 7,9 km/h (2 Bft) 0,00 %
15.08.2015 02:31 19,7 C 80 % 1008,3 hPa 0,0 l/m 4,3 km/h (1 Bft) N-NW 345 0 min 0,000 mm 0,0 UV-I 0 W/m 16,1 C 19,7 C 7,9 km/h (2 Bft) 0,00 %
15.08.2015 02:36 19,6 C 80 % 1008,4 hPa 0,0 l/m 3,2 km/h (1 Bft) W-SW 255 0 min 0,000 mm 0,0 UV-I 0 W/m 16,1 C 19,6 C 4,0 km/h (1 Bft) 0,00 %
15.08.2015 02:41 19,5 C 80 % 1008,3 hPa 0,0 l/m 4,0 km/h (1 Bft) W-NW 298 0 min 0,000 mm 0,0 UV-I 0 W/m 16,0 C 19,5 C 7,9 km/h (2 Bft) 0,00 %
15.08.2015 02:46 19,5 C 80 % 1008,3 hPa 0,0 l/m 0,0 km/h (0 Bft) NO 40 0 min 0,000 mm 0,0 UV-I 0 W/m 16,0 C 19,5 C 0,0 km/h (0 Bft) 0,00 %
15.08.2015 02:51 19,4 C 81 % 1008,3 hPa 0,0 l/m 0,0 km/h (0 Bft) NO 38 0 min 0,000 mm 0,0 UV-I 0 W/m 16,1 C 19,4 C 0,0 km/h (0 Bft) 0,00 %
15.08.2015 02:56 19,4 C 81 % 1008,3 hPa 0,0 l/m 6,5 km/h (2 Bft) W-NW 288 0 min 0,000 mm 0,0 UV-I 0 W/m 16,1 C 19,4 C 7,9 km/h (2 Bft) 0,00 %
15.08.2015 03:01 19,3 C 81 % 1008,2 hPa 0,0 l/m 0,4 km/h (0 Bft) N-NO 21 0 min 0,000 mm 0,0 UV-I 0 W/m 16,0 C 19,3 C 4,0 km/h (1 Bft) 0,00 %
15.08.2015 03:06 19,3 C 81 % 1008,2 hPa 0,0 l/m 1,8 km/h (1 Bft) W-SW 256 0 min 0,000 mm 0,0 UV-I 0 W/m 16,0 C 19,3 C 4,0 km/h (1 Bft) 0,00 %
15.08.2015 03:11 19,2 C 81 % 1008,1 hPa 0,0 l/m 7,9 km/h (2 Bft) W-NW 286 0 min 0,000 mm 0,0 UV-I 0 W/m 15,9 C 18,6 C 11,9 km/h (2 Bft) 0,00 %
15.08.2015 03:16 19,2 C 81 % 1008,1 hPa 0,0 l/m 2,2 km/h (1 Bft) W-NW 298 0 min 0,000 mm 0,0 UV-I 0 W/m 15,9 C 19,2 C 4,0 km/h (1 Bft) 0,00 %
15.08.2015 03:21 19,1 C 81 % 1008,5 hPa 0,0 l/m 3,2 km/h (1 Bft) W-SW 256 0 min 0,000 mm 0,0 UV-I 0 W/m 15,8 C 19,1 C 4,0 km/h (1 Bft) 0,00 %
15.08.2015 03:26 19,1 C 81 % 1008,4 hPa 0,0 l/m 0,0 km/h (0 Bft) N-NO 31 0 min 0,000 mm 0,0 UV-I 0 W/m 15,8 C 19,1 C 0,0 km/h (0 Bft) 0,00 %
15.08.2015 03:31 19,0 C 82 % 1008,4 hPa 0,0 l/m 5,4 km/h (1 Bft) SW 214 0 min 0,000 mm 0,0 UV-I 0 W/m 15,9 C 19,0 C 7,9 km/h (2 Bft) 0,00 %
15.08.2015 03:36 19,0 C 82 % 1008,4 hPa 0,0 l/m 4,0 km/h (1 Bft) W 264 0 min 0,000 mm 0,0 UV-I 0 W/m 15,9 C 19,0 C 7,9 km/h (2 Bft) 0,00 %
15.08.2015 03:41 18,9 C 83 % 1008,5 hPa 0,0 l/m 0,0 km/h (0 Bft) N 354 0 min 0,000 mm 0,0 UV-I 0 W/m 15,9 C 18,9 C 0,0 km/h (0 Bft) 0,00 %
15.08.2015 03:46 18,8 C 83 % 1008,6 hPa 0,0 l/m 2,9 km/h (1 Bft) W-NW 283 0 min 0,000 mm 0,0 UV-I 0 W/m 15,8 C 18,8 C 4,0 km/h (1 Bft) 0,00 %
15.08.2015 03:51 18,8 C 83 % 1008,6 hPa 0,0 l/m 7,9 km/h (2 Bft) S 179 0 min 0,000 mm 0,0 UV-I 0 W/m 15,8 C 18,1 C 15,8 km/h (3 Bft) 0,00 %
15.08.2015 03:56 18,7 C 83 % 1008,7 hPa 0,0 l/m 0,4 km/h (0 Bft) S-SW 202 0 min 0,000 mm 0,0 UV-I 0 W/m 15,8 C 18,7 C 4,0 km/h (1 Bft) 0,00 %
15.08.2015 04:01 18,7 C 83 % 1008,7 hPa 0,0 l/m 0,0 km/h (0 Bft) NO 44 0 min 0,000 mm 0,0 UV-I 0 W/m 15,8 C 18,7 C 0,0 km/h (0 Bft) 0,00 %
15.08.2015 04:06 18,7 C 83 % 1008,7 hPa 0,0 l/m 0,0 km/h (0 Bft) NO 47 0 min 0,000 mm 0,0 UV-I 0 W/m 15,8 C 18,7 C 0,0 km/h (0 Bft) 0,00 %
15.08.2015 04:11 18,7 C 82 % 1008,8 hPa 0,0 l/m 2,9 km/h (1 Bft) N-NW 333 0 min 0,000 mm 0,0 UV-I 0 W/m 15,6 C 18,7 C 4,0 km/h (1 Bft) 0,00 %
15.08.2015 04:16 18,7 C 82 % 1008,7 hPa 0,0 l/m 2,2 km/h (1 Bft) N 351 0 min 0,000 mm 0,0 UV-I 0 W/m 15,6 C 18,7 C 4,0 km/h (1 Bft) 0,00 %
15.08.2015 04:21 18,8 C 82 % 1008,8 hPa 0,0 l/m 2,2 km/h (1 Bft) O 85 0 min 0,000 mm 0,0 UV-I 0 W/m 15,7 C 18,8 C 7,9 km/h (2 Bft) 0,00 %
15.08.2015 04:26 18,8 C 82 % 1008,8 hPa 0,0 l/m 0,0 km/h (0 Bft) NO 40 0 min 0,000 mm 0,0 UV-I 0 W/m 15,7 C 18,8 C 0,0 km/h (0 Bft) 0,00 %
15.08.2015 04:31 18,7 C 82 % 1009,0 hPa 0,0 l/m 0,0 km/h (0 Bft) NO 54 0 min 0,000 mm 0,0 UV-I 0 W/m 15,6 C 18,7 C 0,0 km/h (0 Bft) 0,00 %
15.08.2015 04:36 18,7 C 82 % 1008,9 hPa 0,0 l/m 6,5 km/h (2 Bft) W-SW 256 0 min 0,000 mm 0,0 UV-I 0 W/m 15,6 C 18,7 C 7,9 km/h (2 Bft) 0,00 %
15.08.2015 04:41 18,7 C 82 % 1008,9 hPa 0,0 l/m 2,9 km/h (1 Bft) W-NW 294 0 min 0,000 mm 0,0 UV-I 0 W/m 15,6 C 18,7 C 4,0 km/h (1 Bft) 0,00 %
15.08.2015 04:46 18,7 C 82 % 1009,1 hPa 0,0 l/m 0,0 km/h (0 Bft) N 349 0 min 0,000 mm 0,0 UV-I 0 W/m 15,6 C 18,7 C 0,0 km/h (0 Bft) 0,00 %
15.08.2015 04:51 18,7 C 82 % 1009,1 hPa 0,0 l/m 0,0 km/h (0 Bft) N-NO 20 0 min 0,000 mm 0,0 UV-I 0 W/m 15,6 C 18,7 C 0,0 km/h (0 Bft) 0,00 %
15.08.2015 04:56 18,6 C 83 % 1008,9 hPa 0,0 l/m 0,0 km/h (0 Bft) W-SW 256 0 min 0,000 mm 0,0 UV-I 0 W/m 15,7 C 18,6 C 0,0 km/h (0 Bft) 0,00 %
15.08.2015 05:01 18,4 C 83 % 1009,3 hPa 0,0 l/m 0,0 km/h (0 Bft) NO 50 0 min 0,000 mm 0,0 UV-I 0 W/m 15,5 C 18,4 C 0,0 km/h (0 Bft) 0,00 %
15.08.2015 05:06 18,4 C 83 % 1009,4 hPa 0,0 l/m 0,0 km/h (0 Bft) N 349 0 min 0,000 mm 0,0 UV-I 0 W/m 15,5 C 18,4 C 0,0 km/h (0 Bft) 0,00 %
15.08.2015 05:11 18,3 C 83 % 1009,5 hPa 0,0 l/m 0,0 km/h (0 Bft) W-SW 256 0 min 0,000 mm 0,0 UV-I 0 W/m 15,4 C 18,3 C 0,0 km/h (0 Bft) 0,00 %
15.08.2015 05:16 18,3 C 83 % 1009,3 hPa 0,0 l/m 0,0 km/h (0 Bft) N-NO 21 0 min 0,000 mm 0,0 UV-I 0 W/m 15,4 C 18,3 C 0,0 km/h (0 Bft) 0,00 %
15.08.2015 05:21 18,2 C 83 % 1009,5 hPa 0,0 l/m 0,4 km/h (0 Bft) NO 49 0 min 0,000 mm 0,0 UV-I 0 W/m 15,3 C 18,2 C 4,0 km/h (1 Bft) 0,00 %
15.08.2015 05:26 18,1 C 84 % 1009,3 hPa 0,0 l/m 0,0 km/h (0 Bft) W-NW 303 0 min 0,000 mm 0,0 UV-I 0 W/m 15,4 C 18,1 C 0,0 km/h (0 Bft) 0,00 %
15.08.2015 05:31 18,0 C 84 % 1009,3 hPa 0,0 l/m 0,0 km/h (0 Bft) N-NO 31 0 min 0,000 mm 0,0 UV-I 0 W/m 15,3 C 18,0 C 0,0 km/h (0 Bft) 0,00 %
15.08.2015 05:36 18,0 C 85 % 1009,3 hPa 0,0 l/m 0,0 km/h (0 Bft) NO 41 0 min 0,000 mm 0,0 UV-I 0 W/m 15,4 C 18,0 C 0,0 km/h (0 Bft) 0,00 %
15.08.2015 05:41 17,9 C 85 % 1009,3 hPa 0,0 l/m 0,0 km/h (0 Bft) NO 54 0 min 0,000 mm 0,0 UV-I 0 W/m 15,3 C 17,9 C 0,0 km/h (0 Bft) 0,00 %
15.08.2015 05:46 17,7 C 86 % 1009,3 hPa 0,0 l/m 0,0 km/h (0 Bft) N-NO 29 0 min 0,000 mm 0,0 UV-I 0 W/m 15,3 C 17,7 C 0,0 km/h (0 Bft) 0,00 %
15.08.2015 05:51 17,5 C 86 % 1009,4 hPa 0,0 l/m 0,0 km/h (0 Bft) N-NW 344 0 min 0,000 mm 0,0 UV-I 0 W/m 15,1 C 17,5 C 0,0 km/h (0 Bft) 0,00 %
15.08.2015 05:56 17,5 C 86 % 1009,6 hPa 0,0 l/m 0,0 km/h (0 Bft) N-NO 31 0 min 0,000 mm 0,0 UV-I 0 W/m 15,1 C 17,5 C 0,0 km/h (0 Bft) 0,00 %
15.08.2015 06:01 17,5 C 86 % 1009,5 hPa 0,0 l/m 0,0 km/h (0 Bft) N-NW 348 0 min 0,000 mm 0,0 UV-I 0 W/m 15,1 C 17,5 C 0,0 km/h (0 Bft) 0,00 %
15.08.2015 06:06 17,5 C 87 % 1009,5 hPa 0,0 l/m 0,0 km/h (0 Bft) N 353 0 min 0,000 mm 0,0 UV-I 2 W/m 15,3 C 17,5 C 0,0 km/h (0 Bft) 0,00 %
15.08.2015 06:11 17,4 C 86 % 1009,4 hPa 0,0 l/m 0,0 km/h (0 Bft) N-NW 348 0 min 0,000 mm 0,0 UV-I 5 W/m 15,0 C 17,4 C 0,0 km/h (0 Bft) 0,00 %
15.08.2015 06:16 17,4 C 86 % 1009,4 hPa 0,0 l/m 0,0 km/h (0 Bft) NO 36 0 min 0,000 mm 0,0 UV-I 10 W/m 15,0 C 17,4 C 0,0 km/h (0 Bft) 0,00 %
15.08.2015 06:21 17,3 C 87 % 1009,4 hPa 0,0 l/m 0,0 km/h (0 Bft) NO 49 0 min 0,000 mm 0,0 UV-I 21 W/m 15,1 C 17,3 C 0,0 km/h (0 Bft) 0,00 %
15.08.2015 06:26 17,3 C 87 % 1009,5 hPa 0,0 l/m 0,0 km/h (0 Bft) NO 54 0 min 0,000 mm 0,0 UV-I 30 W/m 15,1 C 17,3 C 0,0 km/h (0 Bft) 0,00 %
15.08.2015 06:31 17,3 C 87 % 1009,6 hPa 0,0 l/m 0,0 km/h (0 Bft) NO 45 0 min 0,000 mm 0,0 UV-I 39 W/m 15,1 C 17,3 C 0,0 km/h (0 Bft) 0,00 %
15.08.2015 06:36 17,3 C 87 % 1009,6 hPa 0,0 l/m 0,0 km/h (0 Bft) NO 45 5 min 0,000 mm 0,0 UV-I 55 W/m 15,1 C 17,3 C 0,0 km/h (0 Bft) 0,00 %
15.08.2015 06:41 17,3 C 87 % 1009,4 hPa 0,0 l/m 0,0 km/h (0 Bft) NO 46 5 min 0,000 mm 0,0 UV-I 73 W/m 15,1 C 17,3 C 0,0 km/h (0 Bft) 0,00 %
15.08.2015 06:46 17,5 C 86 % 1009,6 hPa 0,0 l/m 0,0 km/h (0 Bft) NO 44 5 min 0,000 mm 0,0 UV-I 97 W/m 15,1 C 17,5 C 0,0 km/h (0 Bft) 0,00 %
15.08.2015 06:51 17,8 C 85 % 1009,9 hPa 0,0 l/m 0,0 km/h (0 Bft) NO 39 5 min 0,000 mm 0,0 UV-I 92 W/m 15,2 C 17,8 C 0,0 km/h (0 Bft) 0,00 %
15.08.2015 06:56 18,3 C 83 % 1009,5 hPa 0,0 l/m 0,0 km/h (0 Bft) NO 42 5 min 0,000 mm 0,0 UV-I 95 W/m 15,4 C 18,3 C 0,0 km/h (0 Bft) 0,00 %
15.08.2015 07:01 18,7 C 81 % 1009,5 hPa 0,0 l/m 0,0 km/h (0 Bft) NO 44 0 min 0,000 mm 0,0 UV-I 70 W/m 15,4 C 18,7 C 0,0 km/h (0 Bft) 0,00 %
15.08.2015 07:06 19,2 C 80 % 1009,4 hPa 0,0 l/m 0,0 km/h (0 Bft) O-NO 57 0 min 0,000 mm 0,0 UV-I 68 W/m 15,7 C 19,2 C 0,0 km/h (0 Bft) 0,00 %
15.08.2015 07:11 19,5 C 78 % 1009,6 hPa 0,0 l/m 0,0 km/h (0 Bft) N-NO 25 0 min 0,000 mm 0,0 UV-I 58 W/m 15,6 C 19,5 C 0,0 km/h (0 Bft) 0,00 %
15.08.2015 07:16 19,6 C 77 % 1009,8 hPa 0,0 l/m 0,0 km/h (0 Bft) NO 44 0 min 0,000 mm 0,0 UV-I 53 W/m 15,5 C 19,6 C 0,0 km/h (0 Bft) 0,00 %
15.08.2015 07:21 19,6 C 77 % 1009,9 hPa 0,0 l/m 0,0 km/h (0 Bft) NO 52 0 min 0,000 mm 0,0 UV-I 40 W/m 15,5 C 19,6 C 0,0 km/h (0 Bft) 0,00 %
15.08.2015 07:26 19,5 C 77 % 1009,9 hPa 0,0 l/m 0,0 km/h (0 Bft) N-NO 12 0 min 0,000 mm 0,0 UV-I 34 W/m 15,4 C 19,5 C 0,0 km/h (0 Bft) 0,00 %
15.08.2015 07:31 19,4 C 77 % 1009,7 hPa 0,0 l/m 0,0 km/h (0 Bft) N-NO 23 0 min 0,000 mm 0,0 UV-I 42 W/m 15,3 C 19,4 C 0,0 km/h (0 Bft) 0,00 %
15.08.2015 07:36 19,4 C 78 % 1009,9 hPa 0,0 l/m 0,0 km/h (0 Bft) NO 36 0 min 0,000 mm 0,0 UV-I 46 W/m 15,5 C 19,4 C 0,0 km/h (0 Bft) 0,00 %
15.08.2015 07:41 19,4 C 79 % 1010,1 hPa 0,0 l/m 0,0 km/h (0 Bft) NO 52 0 min 0,000 mm 0,0 UV-I 54 W/m 15,7 C 19,4 C 0,0 km/h (0 Bft) 0,00 %
15.08.2015 07:46 19,3 C 79 % 1010,0 hPa 0,0 l/m 0,0 km/h (0 Bft) N-NO 19 0 min 0,000 mm 0,0 UV-I 36 W/m 15,6 C 19,3 C 0,0 km/h (0 Bft) 0,00 %
15.08.2015 07:51 19,3 C 79 % 1010,0 hPa 0,0 l/m 0,0 km/h (0 Bft) O-NO 63 0 min 0,000 mm 0,0 UV-I 24 W/m 15,6 C 19,3 C 0,0 km/h (0 Bft) 0,00 %
15.08.2015 07:56 19,3 C 78 % 1010,1 hPa 0,0 l/m 0,0 km/h (0 Bft) NO 39 0 min 0,000 mm 0,0 UV-I 16 W/m 15,4 C 19,3 C 0,0 km/h (0 Bft) 0,00 %
15.08.2015 08:01 19,3 C 79 % 1010,2 hPa 0,0 l/m 0,0 km/h (0 Bft) NO 40 0 min 0,000 mm 0,0 UV-I 9 W/m 15,6 C 19,3 C 0,0 km/h (0 Bft) 0,00 %
15.08.2015 08:06 19,2 C 80 % 1010,3 hPa 0,0 l/m 0,0 km/h (0 Bft) NO 43 0 min 0,000 mm 0,0 UV-I 11 W/m 15,7 C 19,2 C 0,0 km/h (0 Bft) 0,00 %
15.08.2015 08:11 19,1 C 81 % 1010,2 hPa 0,0 l/m 0,0 km/h (0 Bft) NO 53 0 min 0,000 mm 0,0 UV-I 19 W/m 15,8 C 19,1 C 0,0 km/h (0 Bft) 0,00 %
15.08.2015 08:16 19,0 C 83 % 1010,0 hPa 0,0 l/m 0,0 km/h (0 Bft) O-NO 66 0 min 0,000 mm 0,0 UV-I 32 W/m 16,0 C 19,0 C 0,0 km/h (0 Bft) 0,00 %
15.08.2015 08:21 18,8 C 84 % 1009,8 hPa 0,3 l/m 0,0 km/h (0 Bft) SW 235 0 min 0,000 mm 0,0 UV-I 42 W/m 16,0 C 18,8 C 0,0 km/h (0 Bft) 0,00 %
15.08.2015 08:26 18,7 C 86 % 1009,4 hPa 0,0 l/m 0,0 km/h (0 Bft) NO 36 0 min 0,000 mm 0,0 UV-I 50 W/m 16,3 C 18,7 C 0,0 km/h (0 Bft) 0,00 %
15.08.2015 08:31 18,5 C 88 % 1009,4 hPa 0,0 l/m 0,0 km/h (0 Bft) O 90 0 min 0,000 mm 1,0 UV-I 91 W/m 16,5 C 18,5 C 0,0 km/h (0 Bft) 0,00 %
15.08.2015 08:36 18,4 C 89 % 1009,5 hPa 0,0 l/m 0,0 km/h (0 Bft) O-SO 120 0 min 0,000 mm 1,0 UV-I 141 W/m 16,6 C 18,4 C 0,0 km/h (0 Bft) 0,00 %
15.08.2015 08:41 18,4 C 90 % 1009,2 hPa 0,0 l/m 0,0 km/h (0 Bft) O 80 0 min 0,000 mm 1,0 UV-I 178 W/m 16,7 C 18,4 C 0,0 km/h (0 Bft) 0,00 %
15.08.2015 08:46 18,6 C 90 % 1009,3 hPa 0,0 l/m 0,0 km/h (0 Bft) O-NO 78 0 min 0,000 mm 1,0 UV-I 234 W/m 16,9 C 18,6 C 0,0 km/h (0 Bft) 0,00 %
15.08.2015 08:51 19,0 C 88 % 1009,5 hPa 0,0 l/m 0,0 km/h (0 Bft) NO 41 0 min 0,000 mm 1,0 UV-I 178 W/m 17,0 C 19,0 C 0,0 km/h (0 Bft) 0,00 %
15.08.2015 08:56 19,4 C 87 % 1009,2 hPa 0,0 l/m 0,0 km/h (0 Bft) NO 42 0 min 0,000 mm 1,0 UV-I 165 W/m 17,2 C 19,4 C 0,0 km/h (0 Bft) 0,00 %
15.08.2015 09:01 19,7 C 85 % 1008,9 hPa 0,0 l/m 0,0 km/h (0 Bft) NO 48 0 min 0,000 mm 1,0 UV-I 162 W/m 17,1 C 19,7 C 0,0 km/h (0 Bft) 0,00 %
15.08.2015 09:06 19,8 C 83 % 1008,8 hPa 0,0 l/m 0,4 km/h (0 Bft) NO 46 0 min 0,000 mm 1,0 UV-I 165 W/m 16,8 C 19,8 C 4,0 km/h (1 Bft) 0,00 %
15.08.2015 09:11 19,9 C 84 % 1008,9 hPa 0,0 l/m 0,0 km/h (0 Bft) O-NO 73 0 min 0,000 mm 1,0 UV-I 189 W/m 17,1 C 19,9 C 0,0 km/h (0 Bft) 0,00 %
15.08.2015 09:16 19,9 C 83 % 1008,8 hPa 0,0 l/m 0,0 km/h (0 Bft) O 82 0 min 0,000 mm 1,0 UV-I 186 W/m 16,9 C 19,9 C 0,0 km/h (0 Bft) 0,00 %
15.08.2015 09:21 19,9 C 83 % 1008,8 hPa 0,0 l/m 0,0 km/h (0 Bft) O-NO 60 0 min 0,000 mm 1,0 UV-I 145 W/m 16,9 C 19,9 C 0,0 km/h (0 Bft) 0,00 %
15.08.2015 09:26 19,9 C 83 % 1009,1 hPa 0,0 l/m 0,0 km/h (0 Bft) O-NO 72 0 min 0,000 mm 1,0 UV-I 131 W/m 16,9 C 19,9 C 0,0 km/h (0 Bft) 0,00 %
15.08.2015 09:31 19,8 C 82 % 1009,2 hPa 0,0 l/m 0,0 km/h (0 Bft) O-SO 110 0 min 0,000 mm 1,0 UV-I 149 W/m 16,6 C 19,8 C 0,0 km/h (0 Bft) 0,00 %
15.08.2015 09:36 19,7 C 82 % 1009,3 hPa 0,0 l/m 0,0 km/h (0 Bft) O-NO 58 0 min 0,000 mm 1,0 UV-I 196 W/m 16,5 C 19,7 C 0,0 km/h (0 Bft) 0,00 %
15.08.2015 09:41 19,8 C 82 % 1009,3 hPa 0,0 l/m 0,0 km/h (0 Bft) NO 46 0 min 0,000 mm 1,0 UV-I 232 W/m 16,6 C 19,8 C 0,0 km/h (0 Bft) 0,00 %
15.08.2015 09:46 20,1 C 81 % 1009,3 hPa 0,0 l/m 0,0 km/h (0 Bft) O-SO 103 0 min 0,000 mm 1,0 UV-I 229 W/m 16,7 C 20,1 C 0,0 km/h (0 Bft) 0,00 %
15.08.2015 09:51 20,4 C 80 % 1009,4 hPa 0,0 l/m 0,0 km/h (0 Bft) O-NO 61 0 min 0,000 mm 1,0 UV-I 227 W/m 16,8 C 20,4 C 0,0 km/h (0 Bft) 0,00 %
15.08.2015 09:56 20,6 C 79 % 1009,2 hPa 0,0 l/m 0,0 km/h (0 Bft) O 101 0 min 0,000 mm 1,0 UV-I 230 W/m 16,8 C 20,6 C 0,0 km/h (0 Bft) 0,00 %
15.08.2015 10:01 20,8 C 79 % 1009,5 hPa 0,0 l/m 1,8 km/h (1 Bft) O 90 0 min 0,000 mm 1,0 UV-I 284 W/m 17,0 C 20,8 C 4,0 km/h (1 Bft) 0,00 %
15.08.2015 10:06 20,8 C 79 % 1009,5 hPa 0,0 l/m 4,0 km/h (1 Bft) O-SO 113 0 min 0,000 mm 1,0 UV-I 310 W/m 17,0 C 20,8 C 7,9 km/h (2 Bft) 0,00 %
15.08.2015 10:11 20,9 C 76 % 1009,2 hPa 0,0 l/m 0,0 km/h (0 Bft) NO 48 0 min 0,000 mm 1,0 UV-I 309 W/m 16,5 C 20,9 C 0,0 km/h (0 Bft) 0,00 %
15.08.2015 10:16 21,0 C 76 % 1008,9 hPa 0,0 l/m 0,4 km/h (0 Bft) NO 37 0 min 0,000 mm 1,0 UV-I 294 W/m 16,6 C 21,0 C 4,0 km/h (1 Bft) 0,00 %
15.08.2015 10:21 21,1 C 76 % 1009,0 hPa 0,0 l/m 0,4 km/h (0 Bft) N 11 0 min 0,000 mm 1,0 UV-I 300 W/m 16,7 C 21,1 C 4,0 km/h (1 Bft) 0,00 %
15.08.2015 10:26 21,1 C 75 % 1009,5 hPa 0,0 l/m 0,0 km/h (0 Bft) NO 36 0 min 0,000 mm 2,0 UV-I 347 W/m 16,5 C 21,1 C 0,0 km/h (0 Bft) 0,00 %
15.08.2015 10:31 21,3 C 74 % 1009,4 hPa 0,0 l/m 0,7 km/h (0 Bft) N-NO 18 5 min 0,000 mm 2,0 UV-I 514 W/m 16,5 C 21,3 C 4,0 km/h (1 Bft) 0,00 %
15.08.2015 10:36 21,8 C 72 % 1009,5 hPa 0,0 l/m 2,2 km/h (1 Bft) NW 312 5 min 0,000 mm 2,0 UV-I 477 W/m 16,5 C 21,8 C 4,0 km/h (1 Bft) 0,00 %
15.08.2015 10:41 22,5 C 70 % 1009,5 hPa 0,0 l/m 0,0 km/h (0 Bft) O-NO 70 0 min 0,000 mm 2,0 UV-I 380 W/m 16,7 C 22,5 C 0,0 km/h (0 Bft) 0,00 %
15.08.2015 10:46 23,0 C 67 % 1009,4 hPa 0,0 l/m 0,0 km/h (0 Bft) NO 46 5 min 0,000 mm 2,0 UV-I 401 W/m 16,5 C 23,0 C 0,0 km/h (0 Bft) 0,00 %
15.08.2015 10:52 23,2 C 67 % 1009,5 hPa 0,0 l/m 0,0 km/h (0 Bft) NO 55 0 min 0,000 mm 2,0 UV-I 360 W/m 16,7 C 23,2 C 0,0 km/h (0 Bft) 0,00 %
15.08.2015 10:57 23,3 C 67 % 1009,5 hPa 0,0 l/m 0,0 km/h (0 Bft) NO 46 5 min 0,000 mm 2,0 UV-I 464 W/m 16,8 C 23,3 C 0,0 km/h (0 Bft) 0,00 %
15.08.2015 11:02 23,4 C 66 % 1009,5 hPa 0,0 l/m 0,0 km/h (0 Bft) N-NO 23 5 min 0,000 mm 2,0 UV-I 488 W/m 16,7 C 23,4 C 0,0 km/h (0 Bft) 0,00 %
15.08.2015 11:07 23,8 C 62 % 1009,5 hPa 0,0 l/m 0,4 km/h (0 Bft) N-NO 30 0 min 0,000 mm 2,0 UV-I 383 W/m 16,1 C 23,8 C 4,0 km/h (1 Bft) 0,00 %
15.08.2015 11:12 24,2 C 61 % 1009,6 hPa 0,0 l/m 1,8 km/h (1 Bft) NW 311 5 min 0,000 mm 3,0 UV-I 708 W/m 16,2 C 24,2 C 4,0 km/h (1 Bft) 0,00 %
15.08.2015 11:17 24,5 C 59 % 1009,3 hPa 0,0 l/m 0,0 km/h (0 Bft) N 353 5 min 0,000 mm 3,0 UV-I 638 W/m 15,9 C 24,5 C 0,0 km/h (0 Bft) 0,00 %
15.08.2015 11:22 25,0 C 58 % 1009,4 hPa 0,0 l/m 2,9 km/h (1 Bft) NW 310 5 min 0,000 mm 3,0 UV-I 586 W/m 16,1 C 25,0 C 4,0 km/h (1 Bft) 0,00 %
15.08.2015 11:27 25,2 C 60 % 1009,2 hPa 0,0 l/m 1,4 km/h (1 Bft) N-NW 342 5 min 0,000 mm 2,0 UV-I 485 W/m 16,9 C 25,2 C 4,0 km/h (1 Bft) 0,00 %
15.08.2015 11:32 25,1 C 61 % 1009,3 hPa 0,0 l/m 3,2 km/h (1 Bft) S-SW 209 0 min 0,000 mm 2,0 UV-I 413 W/m 17,0 C 25,1 C 4,0 km/h (1 Bft) 0,00 %
15.08.2015 11:37 24,7 C 61 % 1009,3 hPa 0,0 l/m 6,5 km/h (2 Bft) SW 227 0 min 0,000 mm 2,0 UV-I 367 W/m 16,7 C 24,7 C 7,9 km/h (2 Bft) 0,00 %
15.08.2015 11:42 24,2 C 63 % 1009,5 hPa 0,0 l/m 2,9 km/h (1 Bft) W-SW 256 0 min 0,000 mm 2,0 UV-I 417 W/m 16,7 C 24,2 C 4,0 km/h (1 Bft) 0,00 %
15.08.2015 11:47 24,0 C 62 % 1009,3 hPa 0,0 l/m 0,0 km/h (0 Bft) NO 38 0 min 0,000 mm 2,0 UV-I 427 W/m 16,3 C 24,0 C 0,0 km/h (0 Bft) 0,00 %
15.08.2015 11:52 24,2 C 62 % 1009,4 hPa 0,0 l/m 0,4 km/h (0 Bft) NW 307 5 min 0,000 mm 2,0 UV-I 496 W/m 16,4 C 24,2 C 4,0 km/h (1 Bft) 0,00 %
15.08.2015 11:57 24,6 C 59 % 1009,3 hPa 0,0 l/m 0,0 km/h (0 Bft) N-NW 346 5 min 0,000 mm 2,0 UV-I 504 W/m 16,0 C 24,6 C 0,0 km/h (0 Bft) 0,00 %
15.08.2015 12:02 25,1 C 59 % 1009,4 hPa 0,0 l/m 0,0 km/h (0 Bft) NO 39 5 min 0,000 mm 2,0 UV-I 536 W/m 16,5 C 25,1 C 0,0 km/h (0 Bft) 0,00 %
15.08.2015 12:07 25,3 C 56 % 1009,5 hPa 0,0 l/m 0,0 km/h (0 Bft) NO 55 5 min 0,000 mm 2,0 UV-I 467 W/m 15,9 C 25,3 C 0,0 km/h (0 Bft) 0,00 %
15.08.2015 12:12 25,5 C 57 % 1009,4 hPa 0,0 l/m 0,0 km/h (0 Bft) NO 56 0 min 0,000 mm 2,0 UV-I 405 W/m 16,3 C 25,5 C 0,0 km/h (0 Bft) 0,00 %
15.08.2015 12:17 25,6 C 53 % 1009,3 hPa 0,0 l/m 2,9 km/h (1 Bft) NW 318 5 min 0,000 mm 3,0 UV-I 583 W/m 15,3 C 25,6 C 4,0 km/h (1 Bft) 0,00 %
15.08.2015 12:22 25,8 C 54 % 1009,3 hPa 0,0 l/m 0,0 km/h (0 Bft) NO 45 5 min 0,000 mm 2,0 UV-I 486 W/m 15,8 C 25,8 C 0,0 km/h (0 Bft) 0,00 %
15.08.2015 12:27 25,9 C 53 % 1009,4 hPa 0,0 l/m 0,0 km/h (0 Bft) N-NW 330 5 min 0,000 mm 3,0 UV-I 662 W/m 15,6 C 25,9 C 0,0 km/h (0 Bft) 0,00 %
15.08.2015 12:32 26,1 C 50 % 1009,3 hPa 0,0 l/m 0,0 km/h (0 Bft) N 353 5 min 0,000 mm 3,0 UV-I 578 W/m 14,8 C 26,1 C 0,0 km/h (0 Bft) 0,00 %
15.08.2015 12:37 26,3 C 49 % 1009,2 hPa 0,0 l/m 0,0 km/h (0 Bft) NO 35 5 min 0,000 mm 3,0 UV-I 624 W/m 14,7 C 26,3 C 0,0 km/h (0 Bft) 0,00 %
15.08.2015 12:42 26,4 C 47 % 1009,1 hPa 0,0 l/m 0,0 km/h (0 Bft) O-NO 60 5 min 0,000 mm 3,0 UV-I 638 W/m 14,2 C 26,4 C 0,0 km/h (0 Bft) 0,00 %
15.08.2015 12:47 26,5 C 48 % 1009,0 hPa 0,0 l/m 0,4 km/h (0 Bft) NW 312 5 min 0,000 mm 4,0 UV-I 889 W/m 14,6 C 26,5 C 4,0 km/h (1 Bft) 0,00 %
15.08.2015 12:52 26,8 C 45 % 1008,9 hPa 0,0 l/m 0,0 km/h (0 Bft) N 356 5 min 0,000 mm 4,0 UV-I 860 W/m 13,9 C 26,8 C 0,0 km/h (0 Bft) 0,00 %
15.08.2015 12:57 27,0 C 44 % 1009,0 hPa 0,0 l/m 0,0 km/h (0 Bft) NO 36 5 min 0,000 mm 4,0 UV-I 862 W/m 13,7 C 27,0 C 0,0 km/h (0 Bft) 0,00 %
15.08.2015 13:02 27,1 C 44 % 1008,9 hPa 0,0 l/m 0,0 km/h (0 Bft) O-NO 78 5 min 0,000 mm 4,0 UV-I 854 W/m 13,8 C 27,1 C 0,0 km/h (0 Bft) 0,00 %
15.08.2015 13:07 27,3 C 44 % 1008,7 hPa 0,0 l/m 0,0 km/h (0 Bft) NO 40 5 min 0,000 mm 4,0 UV-I 856 W/m 14,0 C 27,3 C 0,0 km/h (0 Bft) 0,00 %
15.08.2015 13:12 27,5 C 45 % 1008,8 hPa 0,0 l/m 0,0 km/h (0 Bft) O 85 5 min 0,000 mm 4,0 UV-I 855 W/m 14,5 C 27,5 C 0,0 km/h (0 Bft) 0,00 %
15.08.2015 13:17 27,7 C 44 % 1008,5 hPa 0,0 l/m 1,4 km/h (1 Bft) N-NO 20 5 min 0,000 mm 4,0 UV-I 843 W/m 14,3 C 27,7 C 4,0 km/h (1 Bft) 0,00 %
15.08.2015 13:22 27,8 C 44 % 1008,6 hPa 0,0 l/m 0,0 km/h (0 Bft) N 352 5 min 0,000 mm 4,0 UV-I 850 W/m 14,4 C 27,8 C 0,0 km/h (0 Bft) 0,00 %
15.08.2015 13:27 27,8 C 44 % 1008,7 hPa 0,0 l/m 0,0 km/h (0 Bft) NO 42 5 min 0,000 mm 4,0 UV-I 853 W/m 14,4 C 27,8 C 0,0 km/h (0 Bft) 0,00 %
15.08.2015 13:32 27,9 C 43 % 1008,6 hPa 0,0 l/m 0,0 km/h (0 Bft) N-NO 23 5 min 0,000 mm 4,0 UV-I 859 W/m 14,1 C 27,9 C 0,0 km/h (0 Bft) 0,00 %
15.08.2015 13:37 28,1 C 42 % 1008,4 hPa 0,0 l/m 0,0 km/h (0 Bft) O 86 5 min 0,000 mm 4,0 UV-I 861 W/m 14,0 C 28,1 C 0,0 km/h (0 Bft) 0,00 %
15.08.2015 13:42 28,0 C 43 % 1008,5 hPa 0,0 l/m 0,7 km/h (0 Bft) O 97 5 min 0,000 mm 4,0 UV-I 864 W/m 14,2 C 28,0 C 4,0 km/h (1 Bft) 0,00 %
15.08.2015 13:47 27,8 C 42 % 1008,4 hPa 0,0 l/m 1,4 km/h (1 Bft) N-NO 24 5 min 0,000 mm 4,0 UV-I 849 W/m 13,7 C 27,8 C 4,0 km/h (1 Bft) 0,00 %
15.08.2015 13:52 27,9 C 42 % 1008,3 hPa 0,0 l/m 4,3 km/h (1 Bft) W-NW 285 5 min 0,000 mm 4,0 UV-I 858 W/m 13,8 C 27,9 C 7,9 km/h (2 Bft) 0,00 %
15.08.2015 13:57 28,0 C 42 % 1008,3 hPa 0,0 l/m 0,0 km/h (0 Bft) O-NO 77 5 min 0,000 mm 4,0 UV-I 859 W/m 13,9 C 28,0 C 0,0 km/h (0 Bft) 0,00 %
15.08.2015 14:02 27,9 C 44 % 1008,4 hPa 0,0 l/m 4,3 km/h (1 Bft) NW 312 5 min 0,000 mm 4,0 UV-I 861 W/m 14,5 C 27,9 C 7,9 km/h (2 Bft) 0,00 %
15.08.2015 14:07 27,8 C 44 % 1008,2 hPa 0,0 l/m 1,4 km/h (1 Bft) N-NO 26 5 min 0,000 mm 4,0 UV-I 856 W/m 14,4 C 27,8 C 4,0 km/h (1 Bft) 0,00 %
15.08.2015 14:12 27,8 C 43 % 1008,1 hPa 0,0 l/m 0,0 km/h (0 Bft) O 90 5 min 0,000 mm 4,0 UV-I 875 W/m 14,1 C 27,8 C 0,0 km/h (0 Bft) 0,00 %
15.08.2015 14:17 27,8 C 43 % 1008,1 hPa 0,0 l/m 0,0 km/h (0 Bft) O-NO 72 5 min 0,000 mm 4,0 UV-I 875 W/m 14,1 C 27,8 C 0,0 km/h (0 Bft) 0,00 %
15.08.2015 14:22 27,7 C 43 % 1007,9 hPa 0,0 l/m 0,0 km/h (0 Bft) NO 48 5 min 0,000 mm 4,0 UV-I 883 W/m 14,0 C 27,7 C 0,0 km/h (0 Bft) 0,00 %
15.08.2015 14:27 27,8 C 41 % 1007,8 hPa 0,0 l/m 0,0 km/h (0 Bft) O-NO 69 5 min 0,000 mm 4,0 UV-I 886 W/m 13,3 C 27,8 C 0,0 km/h (0 Bft) 0,00 %
15.08.2015 14:32 28,0 C 41 % 1007,7 hPa 0,0 l/m 2,2 km/h (1 Bft) O-SO 118 5 min 0,000 mm 4,0 UV-I 887 W/m 13,5 C 28,0 C 4,0 km/h (1 Bft) 0,00 %
15.08.2015 14:37 27,9 C 43 % 1007,6 hPa 0,0 l/m 0,0 km/h (0 Bft) O-NO 57 5 min 0,000 mm 3,0 UV-I 882 W/m 14,1 C 27,9 C 0,0 km/h (0 Bft) 0,00 %
15.08.2015 14:42 28,0 C 41 % 1007,9 hPa 0,0 l/m 0,0 km/h (0 Bft) NO 53 5 min 0,000 mm 3,0 UV-I 891 W/m 13,5 C 28,0 C 0,0 km/h (0 Bft) 0,00 %
15.08.2015 14:47 28,4 C 40 % 1007,6 hPa 0,0 l/m 0,0 km/h (0 Bft) N-NO 29 5 min 0,000 mm 3,0 UV-I 895 W/m 13,5 C 28,4 C 0,0 km/h (0 Bft) 0,00 %
15.08.2015 14:52 29,2 C 40 % 1007,8 hPa 0,0 l/m 0,4 km/h (0 Bft) NO 36 5 min 0,000 mm 3,0 UV-I 901 W/m 14,2 C 29,2 C 4,0 km/h (1 Bft) 0,00 %
15.08.2015 14:57 29,5 C 37 % 1007,4 hPa 0,0 l/m 0,0 km/h (0 Bft) NO 44 5 min 0,000 mm 3,0 UV-I 907 W/m 13,3 C 29,5 C 0,0 km/h (0 Bft) 0,00 %
15.08.2015 15:02 29,7 C 36 % 1007,4 hPa 0,0 l/m 0,4 km/h (0 Bft) N-NO 26 5 min 0,000 mm 3,0 UV-I 902 W/m 13,0 C 29,7 C 4,0 km/h (1 Bft) 0,00 %
15.08.2015 15:07 29,7 C 36 % 1007,4 hPa 0,0 l/m 1,4 km/h (1 Bft) N 352 5 min 0,000 mm 3,0 UV-I 894 W/m 13,0 C 29,7 C 7,9 km/h (2 Bft) 0,00 %
15.08.2015 15:12 29,7 C 36 % 1007,2 hPa 0,0 l/m 0,0 km/h (0 Bft) N-NO 31 5 min 0,000 mm 3,0 UV-I 883 W/m 13,0 C 29,7 C 0,0 km/h (0 Bft) 0,00 %
15.08.2015 15:17 29,6 C 35 % 1007,3 hPa 0,0 l/m 0,7 km/h (0 Bft) W-NW 285 5 min 0,000 mm 3,0 UV-I 889 W/m 12,5 C 29,6 C 4,0 km/h (1 Bft) 0,00 %
15.08.2015 15:22 29,7 C 34 % 1007,0 hPa 0,0 l/m 0,0 km/h (0 Bft) O-NO 60 5 min 0,000 mm 3,0 UV-I 892 W/m 12,1 C 29,7 C 0,0 km/h (0 Bft) 0,00 %
15.08.2015 15:27 29,9 C 33 % 1007,1 hPa 0,0 l/m 0,0 km/h (0 Bft) N-NW 344 5 min 0,000 mm 3,0 UV-I 894 W/m 11,9 C 29,9 C 0,0 km/h (0 Bft) 0,00 %
15.08.2015 15:32 30,0 C 33 % 1006,8 hPa 0,0 l/m 0,0 km/h (0 Bft) NO 51 5 min 0,000 mm 3,0 UV-I 894 W/m 11,9 C 30,0 C 0,0 km/h (0 Bft) 0,00 %
15.08.2015 15:37 30,0 C 34 % 1006,8 hPa 0,0 l/m 0,4 km/h (0 Bft) N-NW 336 5 min 0,000 mm 3,0 UV-I 894 W/m 12,4 C 30,0 C 4,0 km/h (1 Bft) 0,00 %
15.08.2015 15:42 30,1 C 32 % 1006,8 hPa 0,0 l/m 5,4 km/h (1 Bft) SO 130 5 min 0,000 mm 3,0 UV-I 890 W/m 11,6 C 30,1 C 7,9 km/h (2 Bft) 0,00 %
15.08.2015 15:47 29,9 C 33 % 1006,6 hPa 0,0 l/m 2,2 km/h (1 Bft) O-NO 76 5 min 0,000 mm 2,0 UV-I 882 W/m 11,9 C 29,9 C 4,0 km/h (1 Bft) 0,00 %
15.08.2015 15:52 29,6 C 33 % 1006,5 hPa 0,0 l/m 0,0 km/h (0 Bft) N 353 5 min 0,000 mm 2,0 UV-I 881 W/m 11,6 C 29,6 C 0,0 km/h (0 Bft) 0,00 %
15.08.2015 15:57 29,6 C 35 % 1006,6 hPa 0,0 l/m 0,0 km/h (0 Bft) N 7 5 min 0,000 mm 1,0 UV-I 880 W/m 12,5 C 29,6 C 0,0 km/h (0 Bft) 0,00 %
15.08.2015 16:02 30,0 C 32 % 1006,6 hPa 0,0 l/m 0,0 km/h (0 Bft) NO 53 5 min 0,000 mm 1,0 UV-I 870 W/m 11,5 C 30,0 C 0,0 km/h (0 Bft) 0,00 %
15.08.2015 16:07 30,3 C 33 % 1006,5 hPa 0,0 l/m 0,0 km/h (0 Bft) NO 34 5 min 0,000 mm 1,0 UV-I 873 W/m 12,2 C 30,3 C 0,0 km/h (0 Bft) 0,00 %
15.08.2015 16:12 30,5 C 32 % 1006,3 hPa 0,0 l/m 0,0 km/h (0 Bft) N-NO 29 5 min 0,000 mm 1,0 UV-I 859 W/m 11,9 C 30,5 C 0,0 km/h (0 Bft) 0,00 %
15.08.2015 16:17 30,5 C 33 % 1006,6 hPa 0,0 l/m 0,0 km/h (0 Bft) N 351 5 min 0,000 mm 1,0 UV-I 855 W/m 12,4 C 30,5 C 0,0 km/h (0 Bft) 0,00 %
15.08.2015 16:22 30,5 C 31 % 1006,7 hPa 0,0 l/m 0,7 km/h (0 Bft) NW 315 5 min 0,000 mm 1,0 UV-I 842 W/m 11,4 C 30,5 C 4,0 km/h (1 Bft) 0,00 %
15.08.2015 16:27 30,5 C 31 % 1006,6 hPa 0,0 l/m 0,0 km/h (0 Bft) NO 36 5 min 0,000 mm 1,0 UV-I 841 W/m 11,4 C 30,5 C 0,0 km/h (0 Bft) 0,00 %
15.08.2015 16:32 30,3 C 32 % 1006,2 hPa 0,0 l/m 0,0 km/h (0 Bft) N-NW 337 5 min 0,000 mm 1,0 UV-I 835 W/m 11,7 C 30,3 C 0,0 km/h (0 Bft) 0,00 %
15.08.2015 16:37 30,2 C 31 % 1006,5 hPa 0,0 l/m 4,3 km/h (1 Bft) W-NW 299 5 min 0,000 mm 1,0 UV-I 827 W/m 11,2 C 30,2 C 7,9 km/h (2 Bft) 0,00 %
15.08.2015 16:42 30,3 C 31 % 1006,3 hPa 0,0 l/m 0,0 km/h (0 Bft) NO 37 5 min 0,000 mm 1,0 UV-I 816 W/m 11,3 C 30,3 C 0,0 km/h (0 Bft) 0,00 %
15.08.2015 16:47 30,4 C 30 % 1006,2 hPa 0,0 l/m 0,0 km/h (0 Bft) NO 52 5 min 0,000 mm 1,0 UV-I 826 W/m 10,9 C 30,4 C 0,0 km/h (0 Bft) 0,00 %
15.08.2015 16:52 30,3 C 31 % 1006,0 hPa 0,0 l/m 1,4 km/h (1 Bft) W 267 5 min 0,000 mm 1,0 UV-I 815 W/m 11,3 C 30,3 C 4,0 km/h (1 Bft) 0,00 %
15.08.2015 16:57 30,4 C 31 % 1006,0 hPa 0,0 l/m 0,0 km/h (0 Bft) O-NO 57 5 min 0,000 mm 1,0 UV-I 818 W/m 11,3 C 30,4 C 0,0 km/h (0 Bft) 0,00 %
15.08.2015 17:02 30,4 C 31 % 1005,9 hPa 0,0 l/m 0,4 km/h (0 Bft) NO 53 5 min 0,000 mm 1,0 UV-I 827 W/m 11,3 C 30,4 C 4,0 km/h (1 Bft) 0,00 %
15.08.2015 17:07 30,4 C 32 % 1006,0 hPa 0,0 l/m 0,0 km/h (0 Bft) N 9 5 min 0,000 mm 1,0 UV-I 817 W/m 11,8 C 30,4 C 0,0 km/h (0 Bft) 0,00 %
15.08.2015 17:12 30,4 C 32 % 1006,0 hPa 0,0 l/m 0,0 km/h (0 Bft) O-NO 74 5 min 0,000 mm 1,0 UV-I 808 W/m 11,8 C 30,4 C 0,0 km/h (0 Bft) 0,00 %
15.08.2015 17:17 30,3 C 32 % 1005,8 hPa 0,0 l/m 0,7 km/h (0 Bft) NW 318 5 min 0,000 mm 1,0 UV-I 799 W/m 11,7 C 30,3 C 4,0 km/h (1 Bft) 0,00 %
15.08.2015 17:22 30,2 C 31 % 1005,8 hPa 0,0 l/m 0,0 km/h (0 Bft) O-NO 76 5 min 0,000 mm 1,0 UV-I 782 W/m 11,2 C 30,2 C 0,0 km/h (0 Bft) 0,00 %
15.08.2015 17:27 30,0 C 32 % 1006,0 hPa 0,0 l/m 0,0 km/h (0 Bft) N-NW 344 5 min 0,000 mm 1,0 UV-I 770 W/m 11,5 C 30,0 C 0,0 km/h (0 Bft) 0,00 %
15.08.2015 17:32 30,0 C 33 % 1006,0 hPa 0,0 l/m 5,4 km/h (1 Bft) NW 309 5 min 0,000 mm 1,0 UV-I 769 W/m 11,9 C 30,0 C 7,9 km/h (2 Bft) 0,00 %
15.08.2015 17:37 30,2 C 31 % 1005,9 hPa 0,0 l/m 0,0 km/h (0 Bft) NO 36 5 min 0,000 mm 1,0 UV-I 758 W/m 11,2 C 30,2 C 0,0 km/h (0 Bft) 0,00 %
15.08.2015 17:42 30,5 C 32 % 1005,8 hPa 0,0 l/m 0,0 km/h (0 Bft) NO 55 5 min 0,000 mm 1,0 UV-I 749 W/m 11,9 C 30,5 C 0,0 km/h (0 Bft) 0,00 %
15.08.2015 17:47 30,7 C 30 % 1006,1 hPa 0,0 l/m 0,7 km/h (0 Bft) N-NW 329 5 min 0,000 mm 1,0 UV-I 720 W/m 11,1 C 30,7 C 4,0 km/h (1 Bft) 0,00 %
15.08.2015 17:52 30,8 C 31 % 1005,8 hPa 0,0 l/m 0,4 km/h (0 Bft) W-NW 287 5 min 0,000 mm 1,0 UV-I 717 W/m 11,7 C 30,8 C 4,0 km/h (1 Bft) 0,00 %
15.08.2015 17:57 30,8 C 30 % 1005,8 hPa 0,0 l/m 0,0 km/h (0 Bft) O-NO 64 5 min 0,000 mm 1,0 UV-I 725 W/m 11,2 C 30,8 C 0,0 km/h (0 Bft) 0,00 %
15.08.2015 18:02 30,9 C 31 % 1005,8 hPa 0,0 l/m 0,0 km/h (0 Bft) NO 36 5 min 0,000 mm 1,0 UV-I 717 W/m 11,8 C 30,9 C 0,0 km/h (0 Bft) 0,00 %
15.08.2015 18:07 30,9 C 29 % 1005,8 hPa 0,0 l/m 0,0 km/h (0 Bft) N-NO 31 5 min 0,000 mm 1,0 UV-I 712 W/m 10,8 C 30,9 C 0,0 km/h (0 Bft) 0,00 %
15.08.2015 18:12 31,1 C 29 % 1005,9 hPa 0,0 l/m 0,0 km/h (0 Bft) NO 48 5 min 0,000 mm 1,0 UV-I 676 W/m 10,9 C 31,1 C 0,0 km/h (0 Bft) 0,00 %
15.08.2015 18:17 31,2 C 30 % 1005,7 hPa 0,0 l/m 0,0 km/h (0 Bft) N 351 5 min 0,000 mm 1,0 UV-I 651 W/m 11,5 C 31,2 C 0,0 km/h (0 Bft) 0,00 %
15.08.2015 18:22 31,1 C 31 % 1005,7 hPa 0,0 l/m 0,0 km/h (0 Bft) N-NW 338 5 min 0,000 mm 1,0 UV-I 626 W/m 11,9 C 31,1 C 0,0 km/h (0 Bft) 0,00 %
15.08.2015 18:27 31,0 C 32 % 1005,8 hPa 0,0 l/m 3,2 km/h (1 Bft) N-NW 341 5 min 0,000 mm 1,0 UV-I 597 W/m 12,3 C 31,0 C 4,0 km/h (1 Bft) 0,00 %
15.08.2015 18:32 30,8 C 33 % 1005,7 hPa 0,0 l/m 0,0 km/h (0 Bft) NO 34 5 min 0,000 mm 1,0 UV-I 490 W/m 12,6 C 30,8 C 0,0 km/h (0 Bft) 0,00 %
15.08.2015 18:37 30,5 C 32 % 1005,9 hPa 0,0 l/m 0,0 km/h (0 Bft) NO 41 5 min 0,000 mm 1,0 UV-I 485 W/m 11,9 C 30,5 C 0,0 km/h (0 Bft) 0,00 %
15.08.2015 18:42 30,4 C 32 % 1005,9 hPa 0,0 l/m 0,0 km/h (0 Bft) NO 37 5 min 0,000 mm 1,0 UV-I 481 W/m 11,8 C 30,4 C 0,0 km/h (0 Bft) 0,00 %
15.08.2015 18:47 30,4 C 32 % 1005,9 hPa 0,0 l/m 0,0 km/h (0 Bft) N-NO 33 5 min 0,000 mm 1,0 UV-I 332 W/m 11,8 C 30,4 C 0,0 km/h (0 Bft) 0,00 %
15.08.2015 18:52 30,3 C 33 % 1005,7 hPa 0,0 l/m 0,0 km/h (0 Bft) O-NO 65 5 min 0,000 mm 1,0 UV-I 328 W/m 12,2 C 30,3 C 0,0 km/h (0 Bft) 0,00 %
15.08.2015 18:57 30,2 C 34 % 1005,8 hPa 0,0 l/m 0,0 km/h (0 Bft) NO 47 5 min 0,000 mm 1,0 UV-I 248 W/m 12,6 C 30,2 C 0,0 km/h (0 Bft) 0,00 %
15.08.2015 19:02 30,0 C 37 % 1005,7 hPa 0,0 l/m 0,0 km/h (0 Bft) N-NW 346 5 min 0,000 mm 1,0 UV-I 223 W/m 13,7 C 30,0 C 0,0 km/h (0 Bft) 0,00 %
15.08.2015 19:07 29,7 C 37 % 1006,0 hPa 0,0 l/m 0,0 km/h (0 Bft) N 351 5 min 0,000 mm 0,0 UV-I 237 W/m 13,4 C 29,7 C 0,0 km/h (0 Bft) 0,00 %
15.08.2015 19:12 29,4 C 38 % 1005,9 hPa 0,0 l/m 0,4 km/h (0 Bft) N-NO 19 5 min 0,000 mm 0,0 UV-I 213 W/m 13,6 C 29,4 C 4,0 km/h (1 Bft) 0,00 %
15.08.2015 19:17 29,1 C 40 % 1006,0 hPa 0,0 l/m 0,0 km/h (0 Bft) N-NW 346 5 min 0,000 mm 0,0 UV-I 194 W/m 14,1 C 29,1 C 0,0 km/h (0 Bft) 0,00 %
15.08.2015 19:22 28,7 C 41 % 1005,9 hPa 0,0 l/m 0,4 km/h (0 Bft) N-NW 343 5 min 0,000 mm 0,0 UV-I 163 W/m 14,1 C 28,7 C 4,0 km/h (1 Bft) 0,00 %
15.08.2015 19:27 28,3 C 41 % 1005,8 hPa 0,0 l/m 0,0 km/h (0 Bft) N-NO 24 5 min 0,000 mm 0,0 UV-I 232 W/m 13,8 C 28,3 C 0,0 km/h (0 Bft) 0,00 %
15.08.2015 19:32 28,0 C 41 % 1006,1 hPa 0,0 l/m 0,0 km/h (0 Bft) N-NO 22 5 min 0,000 mm 0,0 UV-I 234 W/m 13,5 C 28,0 C 0,0 km/h (0 Bft) 0,00 %
15.08.2015 19:37 27,9 C 42 % 1006,1 hPa 0,0 l/m 2,2 km/h (1 Bft) N-NW 338 5 min 0,000 mm 0,0 UV-I 138 W/m 13,8 C 27,9 C 4,0 km/h (1 Bft) 0,00 %
15.08.2015 19:42 27,8 C 42 % 1005,9 hPa 0,0 l/m 0,0 km/h (0 Bft) O-NO 59 5 min 0,000 mm 0,0 UV-I 102 W/m 13,7 C 27,8 C 0,0 km/h (0 Bft) 0,00 %
15.08.2015 19:47 27,7 C 42 % 1006,1 hPa 0,0 l/m 0,0 km/h (0 Bft) NO 34 5 min 0,000 mm 0,0 UV-I 84 W/m 13,6 C 27,7 C 0,0 km/h (0 Bft) 0,00 %
15.08.2015 19:52 27,6 C 42 % 1006,3 hPa 0,0 l/m 0,0 km/h (0 Bft) NO 44 5 min 0,000 mm 0,0 UV-I 57 W/m 13,5 C 27,6 C 0,0 km/h (0 Bft) 0,00 %
15.08.2015 19:57 27,3 C 42 % 1006,2 hPa 0,0 l/m 0,0 km/h (0 Bft) O-NO 68 5 min 0,000 mm 0,0 UV-I 35 W/m 13,2 C 27,3 C 0,0 km/h (0 Bft) 0,00 %
15.08.2015 20:02 27,0 C 42 % 1006,1 hPa 0,0 l/m 0,0 km/h (0 Bft) NO 49 5 min 0,000 mm 0,0 UV-I 21 W/m 13,0 C 27,0 C 0,0 km/h (0 Bft) 0,00 %
15.08.2015 20:07 26,6 C 43 % 1006,3 hPa 0,0 l/m 2,2 km/h (1 Bft) NO 36 5 min 0,000 mm 0,0 UV-I 9 W/m 13,0 C 26,6 C 4,0 km/h (1 Bft) 0,00 %
15.08.2015 20:12 26,1 C 49 % 1006,3 hPa 0,0 l/m 0,0 km/h (0 Bft) O-NO 58 0 min 0,000 mm 0,0 UV-I 1 W/m 14,5 C 26,1 C 0,0 km/h (0 Bft) 0,00 %
15.08.2015 20:17 25,4 C 50 % 1006,3 hPa 0,0 l/m 0,0 km/h (0 Bft) N 354 0 min 0,000 mm 0,0 UV-I 0 W/m 14,2 C 25,4 C 0,0 km/h (0 Bft) 0,00 %
15.08.2015 20:22 24,9 C 50 % 1006,5 hPa 0,0 l/m 0,0 km/h (0 Bft) NO 51 0 min 0,000 mm 0,0 UV-I 0 W/m 13,7 C 24,9 C 0,0 km/h (0 Bft) 0,00 %
15.08.2015 20:27 24,6 C 51 % 1006,7 hPa 0,0 l/m 0,0 km/h (0 Bft) NO 41 0 min 0,000 mm 0,0 UV-I 0 W/m 13,8 C 24,6 C 0,0 km/h (0 Bft) 0,00 %
15.08.2015 20:32 24,3 C 52 % 1006,9 hPa 0,0 l/m 0,0 km/h (0 Bft) NO 42 0 min 0,000 mm 0,0 UV-I 0 W/m 13,8 C 24,3 C 0,0 km/h (0 Bft) 0,00 %
15.08.2015 20:37 24,1 C 53 % 1007,0 hPa 0,0 l/m 0,0 km/h (0 Bft) NO 51 0 min 0,000 mm 0,0 UV-I 0 W/m 13,9 C 24,1 C 0,0 km/h (0 Bft) 0,00 %
15.08.2015 20:42 23,9 C 52 % 1007,1 hPa 0,0 l/m 0,0 km/h (0 Bft) NO 49 0 min 0,000 mm 0,0 UV-I 0 W/m 13,4 C 23,9 C 0,0 km/h (0 Bft) 0,00 %
15.08.2015 20:47 23,7 C 53 % 1007,3 hPa 0,0 l/m 0,0 km/h (0 Bft) NO 48 0 min 0,000 mm 0,0 UV-I 0 W/m 13,5 C 23,7 C 0,0 km/h (0 Bft) 0,00 %
15.08.2015 20:52 23,6 C 53 % 1007,0 hPa 0,0 l/m 0,0 km/h (0 Bft) NO 41 0 min 0,000 mm 0,0 UV-I 0 W/m 13,4 C 23,6 C 0,0 km/h (0 Bft) 0,00 %
15.08.2015 20:57 23,6 C 53 % 1007,1 hPa 0,0 l/m 0,0 km/h (0 Bft) NO 46 0 min 0,000 mm 0,0 UV-I 0 W/m 13,4 C 23,6 C 0,0 km/h (0 Bft) 0,00 %
15.08.2015 21:02 23,5 C 54 % 1007,1 hPa 0,0 l/m 0,0 km/h (0 Bft) NO 37 0 min 0,000 mm 0,0 UV-I 0 W/m 13,6 C 23,5 C 0,0 km/h (0 Bft) 0,00 %
15.08.2015 21:07 23,5 C 54 % 1007,4 hPa 0,0 l/m 0,0 km/h (0 Bft) NO 45 0 min 0,000 mm 0,0 UV-I 0 W/m 13,6 C 23,5 C 0,0 km/h (0 Bft) 0,00 %
15.08.2015 21:12 23,5 C 53 % 1007,5 hPa 0,0 l/m 0,0 km/h (0 Bft) NO 37 0 min 0,000 mm 0,0 UV-I 0 W/m 13,4 C 23,5 C 0,0 km/h (0 Bft) 0,00 %
15.08.2015 21:17 23,5 C 54 % 1007,5 hPa 0,0 l/m 0,0 km/h (0 Bft) N-NO 17 0 min 0,000 mm 0,0 UV-I 0 W/m 13,6 C 23,5 C 0,0 km/h (0 Bft) 0,00 %
15.08.2015 21:22 23,5 C 56 % 1007,6 hPa 0,0 l/m 0,0 km/h (0 Bft) NO 52 0 min 0,000 mm 0,0 UV-I 0 W/m 14,2 C 23,5 C 0,0 km/h (0 Bft) 0,00 %
15.08.2015 21:27 23,4 C 61 % 1007,4 hPa 0,0 l/m 0,0 km/h (0 Bft) N 354 0 min 0,000 mm 0,0 UV-I 0 W/m 15,4 C 23,4 C 0,0 km/h (0 Bft) 0,00 %
15.08.2015 21:32 23,3 C 61 % 1007,6 hPa 0,0 l/m 0,0 km/h (0 Bft) W-SW 253 0 min 0,000 mm 0,0 UV-I 0 W/m 15,3 C 23,3 C 0,0 km/h (0 Bft) 0,00 %
15.08.2015 21:37 23,0 C 62 % 1007,6 hPa 0,0 l/m 0,0 km/h (0 Bft) NO 50 0 min 0,000 mm 0,0 UV-I 0 W/m 15,3 C 23,0 C 0,0 km/h (0 Bft) 0,00 %
15.08.2015 21:42 22,7 C 63 % 1007,5 hPa 0,0 l/m 0,0 km/h (0 Bft) N-NO 12 0 min 0,000 mm 0,0 UV-I 0 W/m 15,3 C 22,7 C 0,0 km/h (0 Bft) 0,00 %
15.08.2015 21:47 22,5 C 63 % 1007,5 hPa 0,0 l/m 0,0 km/h (0 Bft) W 264 0 min 0,000 mm 0,0 UV-I 0 W/m 15,1 C 22,5 C 0,0 km/h (0 Bft) 0,00 %
15.08.2015 21:52 22,5 C 63 % 1007,3 hPa 0,0 l/m 1,8 km/h (1 Bft) W-SW 256 0 min 0,000 mm 0,0 UV-I 0 W/m 15,1 C 22,5 C 4,0 km/h (1 Bft) 0,00 %
15.08.2015 21:57 22,4 C 63 % 1007,5 hPa 0,0 l/m 0,7 km/h (0 Bft) N 353 0 min 0,000 mm 0,0 UV-I 0 W/m 15,0 C 22,4 C 4,0 km/h (1 Bft) 0,00 %
15.08.2015 22:02 22,4 C 63 % 1007,4 hPa 0,0 l/m 0,0 km/h (0 Bft) O-NO 76 0 min 0,000 mm 0,0 UV-I 0 W/m 15,0 C 22,4 C 0,0 km/h (0 Bft) 0,00 %
15.08.2015 22:07 22,3 C 63 % 1007,1 hPa 0,0 l/m 0,0 km/h (0 Bft) N-NO 33 0 min 0,000 mm 0,0 UV-I 0 W/m 14,9 C 22,3 C 0,0 km/h (0 Bft) 0,00 %
15.08.2015 22:12 22,2 C 64 % 1007,1 hPa 0,0 l/m 0,0 km/h (0 Bft) N 349 0 min 0,000 mm 0,0 UV-I 0 W/m 15,1 C 22,2 C 0,0 km/h (0 Bft) 0,00 %
15.08.2015 22:17 22,1 C 65 % 1007,2 hPa 0,0 l/m 0,0 km/h (0 Bft) N 355 0 min 0,000 mm 0,0 UV-I 0 W/m 15,2 C 22,1 C 0,0 km/h (0 Bft) 0,00 %
15.08.2015 22:22 22,0 C 66 % 1007,3 hPa 0,0 l/m 0,0 km/h (0 Bft) N 354 0 min 0,000 mm 0,0 UV-I 0 W/m 15,3 C 22,0 C 0,0 km/h (0 Bft) 0,00 %
15.08.2015 22:27 21,8 C 68 % 1007,4 hPa 0,0 l/m 0,0 km/h (0 Bft) W-SW 249 0 min 0,000 mm 0,0 UV-I 0 W/m 15,6 C 21,8 C 0,0 km/h (0 Bft) 0,00 %
15.08.2015 22:32 21,6 C 69 % 1007,4 hPa 0,0 l/m 8,3 km/h (2 Bft) N-NW 333 0 min 0,000 mm 0,0 UV-I 0 W/m 15,7 C 20,9 C 11,9 km/h (2 Bft) 0,00 %
15.08.2015 22:37 21,5 C 69 % 1007,3 hPa 0,0 l/m 0,0 km/h (0 Bft) N 352 0 min 0,000 mm 0,0 UV-I 0 W/m 15,6 C 21,5 C 0,0 km/h (0 Bft) 0,00 %
15.08.2015 22:42 21,3 C 70 % 1007,5 hPa 0,0 l/m 0,7 km/h (0 Bft) NO 46 0 min 0,000 mm 0,0 UV-I 0 W/m 15,6 C 21,3 C 4,0 km/h (1 Bft) 0,00 %
15.08.2015 22:47 21,1 C 69 % 1007,7 hPa 0,0 l/m 2,2 km/h (1 Bft) N-NW 337 0 min 0,000 mm 0,0 UV-I 0 W/m 15,2 C 21,1 C 4,0 km/h (1 Bft) 0,00 %
15.08.2015 22:52 20,9 C 71 % 1007,6 hPa 0,0 l/m 0,4 km/h (0 Bft) S-SW 206 0 min 0,000 mm 0,0 UV-I 0 W/m 15,4 C 20,9 C 4,0 km/h (1 Bft) 0,00 %
15.08.2015 22:57 20,8 C 71 % 1007,6 hPa 0,0 l/m 2,9 km/h (1 Bft) NW 318 0 min 0,000 mm 0,0 UV-I 0 W/m 15,3 C 20,8 C 7,9 km/h (2 Bft) 0,00 %
15.08.2015 23:02 20,6 C 71 % 1007,5 hPa 0,0 l/m 0,0 km/h (0 Bft) N-NO 15 0 min 0,000 mm 0,0 UV-I 0 W/m 15,2 C 20,6 C 0,0 km/h (0 Bft) 0,00 %
15.08.2015 23:07 20,5 C 72 % 1007,5 hPa 0,0 l/m 0,4 km/h (0 Bft) N-NW 328 0 min 0,000 mm 0,0 UV-I 0 W/m 15,3 C 20,5 C 4,0 km/h (1 Bft) 0,00 %
15.08.2015 23:12 20,3 C 72 % 1007,4 hPa 0,0 l/m 0,0 km/h (0 Bft) NO 47 0 min 0,000 mm 0,0 UV-I 0 W/m 15,1 C 20,3 C 0,0 km/h (0 Bft) 0,00 %
15.08.2015 23:17 20,2 C 73 % 1007,6 hPa 0,0 l/m 0,0 km/h (0 Bft) W-NW 283 0 min 0,000 mm 0,0 UV-I 0 W/m 15,2 C 20,2 C 0,0 km/h (0 Bft) 0,00 %
15.08.2015 23:22 20,0 C 74 % 1007,6 hPa 0,0 l/m 0,0 km/h (0 Bft) O-NO 60 0 min 0,000 mm 0,0 UV-I 0 W/m 15,2 C 20,0 C 0,0 km/h (0 Bft) 0,00 %
15.08.2015 23:27 19,9 C 75 % 1007,6 hPa 0,0 l/m 0,0 km/h (0 Bft) NW 317 0 min 0,000 mm 0,0 UV-I 0 W/m 15,3 C 19,9 C 0,0 km/h (0 Bft) 0,00 %
15.08.2015 23:32 19,8 C 75 % 1007,9 hPa 0,0 l/m 3,2 km/h (1 Bft) W-NW 292 0 min 0,000 mm 0,0 UV-I 0 W/m 15,2 C 19,8 C 4,0 km/h (1 Bft) 0,00 %
15.08.2015 23:37 19,8 C 75 % 1007,7 hPa 0,0 l/m 0,4 km/h (0 Bft) NO 35 0 min 0,000 mm 0,0 UV-I 0 W/m 15,2 C 19,8 C 4,0 km/h (1 Bft) 0,00 %
15.08.2015 23:42 19,7 C 75 % 1007,9 hPa 0,0 l/m 0,4 km/h (0 Bft) O-NO 64 0 min 0,000 mm 0,0 UV-I 0 W/m 15,1 C 19,7 C 4,0 km/h (1 Bft) 0,00 %
15.08.2015 23:47 19,7 C 75 % 1007,9 hPa 0,0 l/m 0,0 km/h (0 Bft) W-SW 256 0 min 0,000 mm 0,0 UV-I 0 W/m 15,1 C 19,7 C 0,0 km/h (0 Bft) 0,00 %
15.08.2015 23:52 19,7 C 76 % 1008,3 hPa 0,0 l/m 0,0 km/h (0 Bft) NO 37 0 min 0,000 mm 0,0 UV-I 0 W/m 15,3 C 19,7 C 0,0 km/h (0 Bft) 0,00 %
15.08.2015 23:57 19,7 C 77 % 1008,4 hPa 0,0 l/m 0,0 km/h (0 Bft) NO 35 0 min 0,000 mm 0,0 UV-I 0 W/m 15,5 C 19,7 C 0,0 km/h (0 Bft) 0,00 %
_ Min-Zeit 06:21 18:07 18:17 - 00:01 - - - - - - 18:07 06:21 00:01 00:01
Minimum _ 17,3 C 29 % 1005,7 hPa - 0,0 km/h (0 Bft) - - - - - - 10,8 C 17,3 C 0,0 km/h (0 Bft) 0,00 %
_ Max-Zeit 18:17 08:41 08:06 08:21 22:32 - - 06:36 00:01 12:47 14:57 08:56 18:17 03:51 00:01
Maximum _ 31,2 C 90 % 1010,3 hPa 0,3 l/m 8,3 km/h
N-NW (2 Bft)
- - 5 min 0,000 mm 4,0 UV-I 907 W/m 17,2 C 31,2 C 15,8 km/h
S (3 Bft)
0,00 %
Durchschnitt _ 23,3 C 62 % 1008,1 hPa #0,3 l/m 0,8 km/h (0 Bft) NW - #9:25 h #0,000 mm 2,0 UV-I 479 W/m 14,7 C 23,3 C 1,7 km/h (1 Bft) 0,00 %